RAWHD26 KNQX-KNPA

Flight info

Callsign RAWHD26
Flight time 2h 5m
Altitude 28000
Route RSW PIE SZW DEFUN J2 INBRD NPA
Aircraft C2/M-SDE2E3FGRY/H

Departure

Time 2026-05-04 16:46
Airport Naval Air Station Key West/Boca Chica Field (KNQX)

Arrival

Time 2026-05-04 18:51
Airport Naval Air Station Pensacola Forrest Sherman Field (KNPA)
Time Latitude Longitude Altitude Speed Heading
2026-05-04 16:22 24.58069 -81.68763 11 ft 0 kts 302°
2026-05-04 16:28 24.58055 -81.68738 11 ft 0 kts 301°
2026-05-04 16:28 24.58056 -81.68739 11 ft 0 kts 301°
2026-05-04 16:30 24.58056 -81.68740 11 ft 0 kts 301°
2026-05-04 16:31 24.58057 -81.68740 11 ft 0 kts 301°
2026-05-04 16:31 24.58057 -81.68741 11 ft 0 kts 301°
2026-05-04 16:32 24.58057 -81.68742 11 ft 0 kts 301°
2026-05-04 16:33 24.58058 -81.68742 11 ft 0 kts 301°
2026-05-04 16:34 24.58058 -81.68743 11 ft 0 kts 301°
2026-05-04 16:35 24.58058 -81.68746 11 ft 1 kts 282°
2026-05-04 16:35 24.58049 -81.68753 11 ft 0 kts 206°
2026-05-04 16:37 24.58049 -81.68754 11 ft 0 kts 206°
2026-05-04 16:37 24.58048 -81.68754 11 ft 0 kts 206°
2026-05-04 16:39 24.57927 -81.68795 11 ft 13 kts 212°
2026-05-04 16:39 24.57800 -81.68895 11 ft 10 kts 243°
2026-05-04 16:40 24.57878 -81.69058 11 ft 15 kts 315°
2026-05-04 16:40 24.57900 -81.69195 11 ft 17 kts 226°
2026-05-04 16:41 24.57772 -81.69438 12 ft 19 kts 240°
2026-05-04 16:41 24.57555 -81.69850 11 ft 21 kts 241°
2026-05-04 16:42 24.57394 -81.70015 11 ft 8 kts 178°
2026-05-04 16:43 24.57359 -81.70012 11 ft 0 kts 175°
2026-05-04 16:43 24.57344 -81.70010 11 ft 6 kts 172°
2026-05-04 16:43 24.57296 -81.69999 11 ft 5 kts 165°
2026-05-04 16:44 24.57318 -81.69764 11 ft 66 kts 72°
2026-05-04 16:45 24.57796 -81.68064 276 ft 131 kts 70°
2026-05-04 16:46 24.58524 -81.65071 1656 ft 157 kts 73°
2026-05-04 16:46 24.59137 -81.62459 2630 ft 195 kts 73°
2026-05-04 16:47 24.60563 -81.59836 3570 ft 212 kts 33°
2026-05-04 16:47 24.63449 -81.59399 4599 ft 218 kts 347°
2026-05-04 16:48 24.67807 -81.61235 6136 ft 229 kts 334°
2026-05-04 16:48 24.69283 -81.61929 6639 ft 233 kts 334°
2026-05-04 16:49 24.72305 -81.63348 7647 ft 239 kts 334°
2026-05-04 16:49 24.75403 -81.64798 8652 ft 244 kts 334°
2026-05-04 16:50 24.78569 -81.66265 9660 ft 248 kts 334°
2026-05-04 16:50 24.81778 -81.67713 10664 ft 250 kts 334°
2026-05-04 16:51 24.85087 -81.68891 11668 ft 252 kts 344°
2026-05-04 16:51 24.86794 -81.69208 12165 ft 252 kts 346°
2026-05-04 16:51 24.90278 -81.69690 13164 ft 252 kts 348°
2026-05-04 16:52 24.93774 -81.70030 14162 ft 252 kts 349°
2026-05-04 16:52 24.95525 -81.70172 14661 ft 252 kts 349°
2026-05-04 16:53 24.99026 -81.70420 15660 ft 252 kts 349°
2026-05-04 16:53 25.04256 -81.70729 17153 ft 251 kts 349°
2026-05-04 16:54 25.06005 -81.70819 17653 ft 251 kts 349°
2026-05-04 16:55 25.13099 -81.71154 19309 ft 260 kts 349°
2026-05-04 16:55 25.16727 -81.71322 20062 ft 261 kts 349°
2026-05-04 16:56 25.20336 -81.71494 20807 ft 261 kts 349°
2026-05-04 16:56 25.25755 -81.71749 21929 ft 258 kts 348°
2026-05-04 16:57 25.27551 -81.71831 22304 ft 258 kts 348°
2026-05-04 16:57 25.31125 -81.71987 23052 ft 256 kts 348°
2026-05-04 16:58 25.36444 -81.72227 24175 ft 254 kts 347°
2026-05-04 16:58 25.38208 -81.72307 24533 ft 254 kts 347°
2026-05-04 16:59 25.41742 -81.72463 25150 ft 257 kts 347°
2026-05-04 17:00 25.48948 -81.72804 26356 ft 261 kts 346°
2026-05-04 17:00 25.54407 -81.73052 27249 ft 263 kts 346°
2026-05-04 17:01 25.58089 -81.73216 27757 ft 267 kts 346°
2026-05-04 17:01 25.61876 -81.73389 28039 ft 278 kts 346°
2026-05-04 17:02 25.65858 -81.73580 28077 ft 295 kts 347°
2026-05-04 17:02 25.70054 -81.73765 28072 ft 307 kts 347°
2026-05-04 17:03 25.71329 -81.73820 28072 ft 310 kts 347°
2026-05-04 17:03 25.77161 -81.74084 28069 ft 317 kts 347°
2026-05-04 17:04 25.86013 -81.74493 28061 ft 319 kts 347°
2026-05-04 17:05 25.94917 -81.74894 28057 ft 320 kts 347°
2026-05-04 17:06 26.01573 -81.75196 28057 ft 320 kts 347°
2026-05-04 17:07 26.06785 -81.75433 28055 ft 321 kts 347°
2026-05-04 17:07 26.12723 -81.75706 28050 ft 321 kts 347°
2026-05-04 17:08 26.18103 -81.75955 28049 ft 321 kts 347°
2026-05-04 17:09 26.21815 -81.76126 28050 ft 321 kts 347°
2026-05-04 17:09 26.26277 -81.76334 28052 ft 321 kts 347°
2026-05-04 17:10 26.37426 -81.76854 28060 ft 321 kts 347°
2026-05-04 17:11 26.41873 -81.77063 28063 ft 321 kts 347°
2026-05-04 17:12 26.48570 -81.77378 28066 ft 321 kts 347°
2026-05-04 17:13 26.57347 -81.80172 28071 ft 294 kts 320°
2026-05-04 17:14 26.62613 -81.83732 28062 ft 295 kts 321°
2026-05-04 17:14 26.64381 -81.84903 28062 ft 296 kts 321°
2026-05-04 17:14 26.67925 -81.87243 28063 ft 296 kts 321°
2026-05-04 17:15 26.69699 -81.88413 28064 ft 296 kts 321°
2026-05-04 17:15 26.73249 -81.90753 28070 ft 296 kts 321°
2026-05-04 17:16 26.76799 -81.93092 28079 ft 296 kts 321°
2026-05-04 17:16 26.82110 -81.96574 28091 ft 296 kts 321°
2026-05-04 17:17 26.83889 -81.97740 28094 ft 296 kts 321°
2026-05-04 17:17 26.89205 -82.01222 28098 ft 296 kts 321°
2026-05-04 17:18 26.90982 -82.02387 28099 ft 296 kts 321°
2026-05-04 17:18 26.94538 -82.04717 28099 ft 296 kts 321°
2026-05-04 17:19 26.98094 -82.07046 28098 ft 296 kts 321°
2026-05-04 17:19 27.01654 -82.09379 28097 ft 296 kts 321°
2026-05-04 17:20 27.05214 -82.11712 28095 ft 296 kts 321°
2026-05-04 17:20 27.08772 -82.14043 28093 ft 296 kts 321°
2026-05-04 17:20 27.10554 -82.15210 28092 ft 296 kts 321°
2026-05-04 17:21 27.14092 -82.17527 28090 ft 296 kts 321°
2026-05-04 17:21 27.17654 -82.19867 28089 ft 296 kts 321°
2026-05-04 17:22 27.19432 -82.21036 28088 ft 296 kts 321°
2026-05-04 17:22 27.21214 -82.22211 28088 ft 296 kts 321°
2026-05-04 17:23 27.26515 -82.25709 28088 ft 296 kts 321°
2026-05-04 17:23 27.28289 -82.26880 28088 ft 296 kts 321°
2026-05-04 17:23 27.31843 -82.29222 28088 ft 295 kts 321°
2026-05-04 17:24 27.33613 -82.30393 28089 ft 295 kts 321°
2026-05-04 17:24 27.38916 -82.33905 28089 ft 295 kts 321°
2026-05-04 17:25 27.40683 -82.35076 28090 ft 295 kts 321°
2026-05-04 17:25 27.44216 -82.37418 28090 ft 294 kts 321°
2026-05-04 17:26 27.47745 -82.39759 28090 ft 294 kts 321°
2026-05-04 17:26 27.53041 -82.43274 28090 ft 294 kts 321°
2026-05-04 17:27 27.56550 -82.45605 28089 ft 294 kts 321°
2026-05-04 17:27 27.60074 -82.47947 28088 ft 294 kts 321°
2026-05-04 17:28 27.63610 -82.50300 28088 ft 294 kts 321°
2026-05-04 17:29 27.68904 -82.53826 28089 ft 294 kts 321°
2026-05-04 17:29 27.74183 -82.57345 28089 ft 294 kts 321°
2026-05-04 17:30 27.77506 -82.59563 28089 ft 295 kts 321°
2026-05-04 17:31 27.81032 -82.61920 28089 ft 295 kts 321°
2026-05-04 17:31 27.86329 -82.65466 28094 ft 295 kts 321°
2026-05-04 17:32 27.89863 -82.67832 28098 ft 295 kts 321°
2026-05-04 17:33 27.95276 -82.71228 28099 ft 297 kts 323°
2026-05-04 17:33 27.97090 -82.72348 28099 ft 297 kts 323°
2026-05-04 17:34 28.02518 -82.75698 28099 ft 297 kts 323°
2026-05-04 17:34 28.04334 -82.76822 28099 ft 297 kts 323°
2026-05-04 17:35 28.09068 -82.79756 28100 ft 297 kts 323°
2026-05-04 17:35 28.12676 -82.81995 28101 ft 298 kts 323°
2026-05-04 17:35 28.14493 -82.83126 28101 ft 298 kts 323°
2026-05-04 17:36 28.16313 -82.84257 28101 ft 298 kts 322°
2026-05-04 17:36 28.18130 -82.85390 28102 ft 298 kts 323°
2026-05-04 17:36 28.19949 -82.86524 28103 ft 298 kts 323°
2026-05-04 17:36 28.21766 -82.87657 28104 ft 298 kts 323°
2026-05-04 17:37 28.23559 -82.88775 28105 ft 298 kts 323°
2026-05-04 17:37 28.25378 -82.89909 28105 ft 298 kts 323°
2026-05-04 17:37 28.27197 -82.91044 28106 ft 298 kts 323°
2026-05-04 17:37 28.29016 -82.92179 28106 ft 298 kts 323°
2026-05-04 17:38 28.30835 -82.93313 28107 ft 298 kts 323°
2026-05-04 17:38 28.32658 -82.94452 28107 ft 298 kts 323°
2026-05-04 17:38 28.34479 -82.95590 28108 ft 299 kts 323°
2026-05-04 17:38 28.36302 -82.96731 28108 ft 299 kts 323°
2026-05-04 17:39 28.39941 -82.99013 28109 ft 299 kts 323°
2026-05-04 17:39 28.41768 -83.00157 28110 ft 299 kts 323°
2026-05-04 17:39 28.43570 -83.01285 28110 ft 299 kts 323°
2026-05-04 17:40 28.45393 -83.02428 28110 ft 300 kts 323°
2026-05-04 17:40 28.47220 -83.03573 28110 ft 300 kts 323°
2026-05-04 17:40 28.49047 -83.04719 28110 ft 300 kts 323°
2026-05-04 17:40 28.50879 -83.05868 28110 ft 300 kts 323°
2026-05-04 17:41 28.52705 -83.07015 28116 ft 300 kts 323°
2026-05-04 17:41 28.54532 -83.08163 28118 ft 300 kts 323°
2026-05-04 17:41 28.56359 -83.09311 28119 ft 300 kts 323°
2026-05-04 17:41 28.58188 -83.10461 28119 ft 300 kts 323°
2026-05-04 17:42 28.60015 -83.11610 28120 ft 300 kts 323°
2026-05-04 17:42 28.61847 -83.12763 28120 ft 300 kts 323°
2026-05-04 17:42 28.63676 -83.13913 28120 ft 300 kts 323°
2026-05-04 17:42 28.65508 -83.15064 28120 ft 301 kts 323°
2026-05-04 17:43 28.69151 -83.17356 28120 ft 301 kts 323°
2026-05-04 17:43 28.72814 -83.19665 28120 ft 301 kts 323°
2026-05-04 17:44 28.76482 -83.21980 28120 ft 301 kts 323°
2026-05-04 17:44 28.80151 -83.24297 28120 ft 301 kts 323°
2026-05-04 17:45 28.83819 -83.26616 28120 ft 301 kts 323°
2026-05-04 17:45 28.87485 -83.28935 28120 ft 301 kts 323°
2026-05-04 17:46 28.91157 -83.31254 28120 ft 302 kts 323°
2026-05-04 17:46 28.94828 -83.33579 28120 ft 302 kts 323°
2026-05-04 17:47 28.98503 -83.35909 28120 ft 302 kts 323°
2026-05-04 17:47 29.02177 -83.38241 28120 ft 302 kts 323°
2026-05-04 17:48 29.05854 -83.40577 28120 ft 302 kts 323°
2026-05-04 17:48 29.09529 -83.42913 28120 ft 302 kts 323°
2026-05-04 17:49 29.13182 -83.45237 28114 ft 302 kts 323°
2026-05-04 17:49 29.16859 -83.47574 28111 ft 302 kts 323°
2026-05-04 17:50 29.20530 -83.49911 28111 ft 302 kts 323°
2026-05-04 17:50 29.24201 -83.52254 28111 ft 302 kts 323°
2026-05-04 17:51 29.27866 -83.54594 28111 ft 302 kts 323°
2026-05-04 17:51 29.31539 -83.56941 28112 ft 302 kts 323°
2026-05-04 17:52 29.35184 -83.59272 28112 ft 302 kts 323°
2026-05-04 17:52 29.38849 -83.61617 28112 ft 302 kts 323°
2026-05-04 17:53 29.42519 -83.63969 28112 ft 302 kts 323°
2026-05-04 17:53 29.46184 -83.66318 28112 ft 302 kts 323°
2026-05-04 17:54 29.49855 -83.68669 28113 ft 302 kts 323°
2026-05-04 17:54 29.53525 -83.71024 28113 ft 302 kts 323°
2026-05-04 17:55 29.56576 -83.72983 28113 ft 302 kts 323°
2026-05-04 17:55 29.60847 -83.75728 28114 ft 302 kts 323°
2026-05-04 17:56 29.64516 -83.78085 28116 ft 302 kts 323°
2026-05-04 17:56 29.67565 -83.80049 28119 ft 302 kts 323°
2026-05-04 17:57 29.71234 -83.82414 28120 ft 302 kts 323°
2026-05-04 17:57 29.74901 -83.84781 28121 ft 302 kts 323°
2026-05-04 17:58 29.78565 -83.87147 28124 ft 302 kts 323°
2026-05-04 17:58 29.82228 -83.89515 28125 ft 302 kts 323°
2026-05-04 17:59 29.85891 -83.91885 28126 ft 302 kts 323°
2026-05-04 18:00 29.91388 -83.95447 28127 ft 302 kts 323°
2026-05-04 18:00 29.95054 -83.97823 28128 ft 302 kts 323°
2026-05-04 18:01 29.98723 -84.00204 28128 ft 302 kts 323°
2026-05-04 18:01 30.02386 -84.02583 28129 ft 302 kts 323°
2026-05-04 18:02 30.07858 -84.06142 28129 ft 302 kts 323°
2026-05-04 18:02 30.11526 -84.08529 28130 ft 302 kts 323°
2026-05-04 18:03 30.15192 -84.10917 28130 ft 302 kts 323°
2026-05-04 18:03 30.18857 -84.13308 28130 ft 302 kts 323°
2026-05-04 18:04 30.22501 -84.15685 28120 ft 303 kts 323°
2026-05-04 18:05 30.28006 -84.19281 28111 ft 303 kts 323°
2026-05-04 18:05 30.31671 -84.21678 28110 ft 303 kts 323°
2026-05-04 18:06 30.37183 -84.25279 28110 ft 303 kts 323°
2026-05-04 18:06 30.40856 -84.27686 28110 ft 303 kts 323°
2026-05-04 18:07 30.44528 -84.30094 28111 ft 303 kts 323°
2026-05-04 18:07 30.48209 -84.32511 28112 ft 303 kts 323°
2026-05-04 18:08 30.51863 -84.34912 28116 ft 303 kts 323°
2026-05-04 18:08 30.53618 -84.36229 28116 ft 295 kts 313°
2026-05-04 18:08 30.54816 -84.38084 28125 ft 285 kts 293°
2026-05-04 18:09 30.55734 -84.41809 28140 ft 284 kts 282°
2026-05-04 18:09 30.56604 -84.46302 28134 ft 285 kts 283°
2026-05-04 18:10 30.57052 -84.48545 28135 ft 286 kts 282°
2026-05-04 18:10 30.57470 -84.50770 28137 ft 286 kts 282°
2026-05-04 18:10 30.57875 -84.53063 28138 ft 286 kts 281°
2026-05-04 18:10 30.58252 -84.55303 28139 ft 286 kts 281°
2026-05-04 18:11 30.58628 -84.57572 28139 ft 287 kts 281°
2026-05-04 18:11 30.59000 -84.59843 28139 ft 287 kts 280°
2026-05-04 18:11 30.59363 -84.62119 28138 ft 287 kts 280°
2026-05-04 18:11 30.59721 -84.64401 28137 ft 287 kts 280°
2026-05-04 18:12 30.60074 -84.66686 28136 ft 287 kts 280°
2026-05-04 18:12 30.60423 -84.68970 28137 ft 287 kts 280°
2026-05-04 18:12 30.60769 -84.71251 28136 ft 287 kts 280°
2026-05-04 18:12 30.61115 -84.73535 28135 ft 287 kts 280°
2026-05-04 18:13 30.61460 -84.75819 28134 ft 287 kts 280°
2026-05-04 18:13 30.61805 -84.78107 28133 ft 287 kts 280°
2026-05-04 18:13 30.62490 -84.82678 28130 ft 288 kts 280°
2026-05-04 18:14 30.62829 -84.84939 28129 ft 288 kts 280°
2026-05-04 18:14 30.63172 -84.87227 28128 ft 288 kts 280°
2026-05-04 18:14 30.63515 -84.89522 28127 ft 288 kts 280°
2026-05-04 18:15 30.64203 -84.94112 28124 ft 288 kts 280°
2026-05-04 18:15 30.64893 -84.98699 28121 ft 288 kts 280°
2026-05-04 18:15 30.65238 -85.00991 28120 ft 288 kts 280°
2026-05-04 18:16 30.65586 -85.03289 28119 ft 288 kts 280°
2026-05-04 18:16 30.65933 -85.05583 28118 ft 289 kts 280°
2026-05-04 18:16 30.66279 -85.07879 28116 ft 289 kts 280°
2026-05-04 18:17 30.66964 -85.12471 28115 ft 289 kts 279°
2026-05-04 18:17 30.67304 -85.14770 28114 ft 289 kts 279°
2026-05-04 18:17 30.67982 -85.19367 28112 ft 289 kts 279°
2026-05-04 18:18 30.68319 -85.21667 28112 ft 289 kts 279°
2026-05-04 18:18 30.68657 -85.23968 28112 ft 289 kts 279°
2026-05-04 18:18 30.68992 -85.26266 28112 ft 289 kts 279°
2026-05-04 18:18 30.69328 -85.28565 28112 ft 289 kts 279°
2026-05-04 18:19 30.69995 -85.33136 28112 ft 289 kts 279°
2026-05-04 18:19 30.70326 -85.35415 28106 ft 284 kts 279°
2026-05-04 18:19 30.70656 -85.37682 27850 ft 284 kts 279°
2026-05-04 18:20 30.70981 -85.39933 27519 ft 280 kts 279°
2026-05-04 18:20 30.71299 -85.42146 27207 ft 275 kts 279°
2026-05-04 18:20 30.71613 -85.44325 26903 ft 271 kts 279°
2026-05-04 18:20 30.71922 -85.46474 26601 ft 268 kts 279°
2026-05-04 18:21 30.72229 -85.48597 26299 ft 265 kts 279°
2026-05-04 18:21 30.72532 -85.50698 25997 ft 262 kts 279°
2026-05-04 18:21 30.72834 -85.52782 25695 ft 260 kts 279°
2026-05-04 18:21 30.73134 -85.54852 25393 ft 258 kts 279°
2026-05-04 18:22 30.73432 -85.56905 25092 ft 257 kts 279°
2026-05-04 18:22 30.73726 -85.58922 24794 ft 256 kts 279°
2026-05-04 18:22 30.74029 -85.60980 24490 ft 254 kts 279°
2026-05-04 18:22 30.74321 -85.62977 24193 ft 254 kts 279°
2026-05-04 18:23 30.74614 -85.64996 23892 ft 253 kts 279°
2026-05-04 18:23 30.74904 -85.67010 23592 ft 252 kts 279°
2026-05-04 18:23 30.75193 -85.69022 23291 ft 252 kts 279°
2026-05-04 18:23 30.75481 -85.71032 22990 ft 252 kts 279°
2026-05-04 18:24 30.75768 -85.73037 22690 ft 251 kts 279°
2026-05-04 18:24 30.76053 -85.75044 22391 ft 252 kts 279°
2026-05-04 18:24 30.76340 -85.77072 22125 ft 256 kts 279°
2026-05-04 18:24 30.76630 -85.79125 21874 ft 259 kts 279°
2026-05-04 18:25 30.76924 -85.81201 21625 ft 261 kts 279°
2026-05-04 18:25 30.77221 -85.83294 21377 ft 264 kts 279°
2026-05-04 18:25 30.77519 -85.85403 21128 ft 265 kts 279°
2026-05-04 18:25 30.77819 -85.87527 20879 ft 267 kts 279°
2026-05-04 18:26 30.78120 -85.89668 20630 ft 269 kts 278°
2026-05-04 18:26 30.78422 -85.91820 20380 ft 270 kts 278°
2026-05-04 18:26 30.78616 -85.93201 20221 ft 271 kts 278°
2026-05-04 18:26 30.78918 -85.95344 19975 ft 273 kts 279°
2026-05-04 18:27 30.79224 -85.97525 19726 ft 274 kts 279°
2026-05-04 18:27 30.79532 -85.99718 19476 ft 275 kts 278°
2026-05-04 18:27 30.79839 -86.01917 19227 ft 276 kts 278°
2026-05-04 18:27 30.80147 -86.04120 18977 ft 276 kts 278°
2026-05-04 18:28 30.80455 -86.06308 18725 ft 272 kts 278°
2026-05-04 18:28 30.80759 -86.08469 18474 ft 270 kts 278°
2026-05-04 18:28 30.81061 -86.10617 18222 ft 268 kts 278°
2026-05-04 18:28 30.81350 -86.12754 17969 ft 266 kts 276°
2026-05-04 18:29 30.81462 -86.14894 17721 ft 265 kts 272°
2026-05-04 18:29 30.81519 -86.17032 17471 ft 264 kts 271°
2026-05-04 18:29 30.81573 -86.19159 17219 ft 263 kts 271°
2026-05-04 18:29 30.81625 -86.21283 16969 ft 262 kts 271°
2026-05-04 18:30 30.81723 -86.25519 16468 ft 262 kts 271°
2026-05-04 18:30 30.81739 -86.26204 16386 ft 261 kts 271°
2026-05-04 18:30 30.81774 -86.27789 16199 ft 261 kts 271°
2026-05-04 18:31 30.81817 -86.29791 15963 ft 261 kts 271°
2026-05-04 18:31 30.81862 -86.31902 15713 ft 261 kts 271°
2026-05-04 18:31 30.81907 -86.34014 15463 ft 261 kts 271°
2026-05-04 18:31 30.81951 -86.36131 15212 ft 262 kts 271°
2026-05-04 18:32 30.81996 -86.38246 14962 ft 262 kts 271°
2026-05-04 18:32 30.82041 -86.40366 14720 ft 263 kts 271°
2026-05-04 18:32 30.82084 -86.42499 14472 ft 265 kts 271°
2026-05-04 18:32 30.82127 -86.44643 14214 ft 265 kts 271°
2026-05-04 18:33 30.82170 -86.46778 13959 ft 262 kts 271°
2026-05-04 18:33 30.82216 -86.48893 13708 ft 259 kts 271°
2026-05-04 18:33 30.82261 -86.50951 13460 ft 257 kts 271°
2026-05-04 18:33 30.82309 -86.53023 13207 ft 255 kts 271°
2026-05-04 18:34 30.82342 -86.54414 13039 ft 254 kts 271°
2026-05-04 18:34 30.82374 -86.55751 12880 ft 254 kts 271°
2026-05-04 18:34 30.82414 -86.57491 12671 ft 254 kts 271°
2026-05-04 18:34 30.82458 -86.59548 12417 ft 255 kts 271°
2026-05-04 18:35 30.82501 -86.61610 12163 ft 254 kts 270°
2026-05-04 18:35 30.82542 -86.63664 11917 ft 254 kts 270°
2026-05-04 18:35 30.82581 -86.65721 11668 ft 254 kts 270°
2026-05-04 18:35 30.82597 -86.67768 11471 ft 251 kts 268°
2026-05-04 18:36 30.82510 -86.69787 11299 ft 248 kts 266°
2026-05-04 18:36 30.82411 -86.71756 11123 ft 246 kts 266°
2026-05-04 18:36 30.82309 -86.73737 10933 ft 244 kts 266°
2026-05-04 18:36 30.82204 -86.75705 10757 ft 243 kts 265°
2026-05-04 18:37 30.82098 -86.77661 10582 ft 242 kts 265°
2026-05-04 18:37 30.81990 -86.79605 10404 ft 241 kts 265°
2026-05-04 18:37 30.81884 -86.81541 10229 ft 240 kts 265°
2026-05-04 18:37 30.81776 -86.83474 10053 ft 239 kts 265°
2026-05-04 18:38 30.81669 -86.85402 9877 ft 238 kts 265°
2026-05-04 18:38 30.81393 -86.87293 9683 ft 238 kts 249°
2026-05-04 18:38 30.80502 -86.88893 9497 ft 236 kts 229°
2026-05-04 18:38 30.79408 -86.90325 9298 ft 237 kts 227°
2026-05-04 18:39 30.78325 -86.91778 9098 ft 238 kts 229°
2026-05-04 18:39 30.77264 -86.93260 8898 ft 239 kts 230°
2026-05-04 18:39 30.76230 -86.94747 8712 ft 241 kts 230°
2026-05-04 18:39 30.75190 -86.96283 8504 ft 242 kts 231°
2026-05-04 18:40 30.74157 -86.97835 8303 ft 242 kts 231°
2026-05-04 18:40 30.73140 -86.99394 8111 ft 243 kts 232°
2026-05-04 18:40 30.72125 -87.00969 7911 ft 242 kts 232°
2026-05-04 18:40 30.71131 -87.02515 7698 ft 235 kts 232°
2026-05-04 18:41 30.70168 -87.04018 7465 ft 228 kts 232°
2026-05-04 18:41 30.69253 -87.05454 7209 ft 219 kts 232°
2026-05-04 18:41 30.68361 -87.06860 6955 ft 212 kts 232°
2026-05-04 18:41 30.67504 -87.08216 6745 ft 204 kts 232°
2026-05-04 18:42 30.66678 -87.09524 6536 ft 198 kts 232°
2026-05-04 18:42 30.66146 -87.10371 6418 ft 195 kts 232°
2026-05-04 18:42 30.65062 -87.12095 6156 ft 199 kts 232°
2026-05-04 18:42 30.64238 -87.13403 5942 ft 201 kts 232°
2026-05-04 18:43 30.63418 -87.14706 5740 ft 199 kts 232°
2026-05-04 18:43 30.62877 -87.15567 5620 ft 199 kts 232°
2026-05-04 18:43 30.62053 -87.16881 5375 ft 204 kts 232°
2026-05-04 18:43 30.61213 -87.18223 5120 ft 206 kts 232°
2026-05-04 18:44 30.60380 -87.19553 4858 ft 201 kts 232°
2026-05-04 18:44 30.59835 -87.20422 4694 ft 199 kts 232°
2026-05-04 18:44 30.58751 -87.22152 4364 ft 197 kts 232°
2026-05-04 18:44 30.57943 -87.23441 4112 ft 197 kts 232°
2026-05-04 18:45 30.57143 -87.24716 3851 ft 193 kts 232°
2026-05-04 18:45 30.56363 -87.25959 3613 ft 188 kts 232°
2026-05-04 18:45 30.55609 -87.27164 3363 ft 186 kts 232°
2026-05-04 18:45 30.54857 -87.28366 3110 ft 182 kts 232°
2026-05-04 18:46 30.54138 -87.29520 2844 ft 165 kts 232°
2026-05-04 18:46 30.53395 -87.30330 2563 ft 140 kts 205°
2026-05-04 18:46 30.52416 -87.30647 2366 ft 154 kts 188°
2026-05-04 18:46 30.51328 -87.30785 2134 ft 160 kts 184°
2026-05-04 18:47 30.50234 -87.30876 1921 ft 155 kts 182°
2026-05-04 18:47 30.49196 -87.30939 1810 ft 146 kts 181°
2026-05-04 18:47 30.48186 -87.30978 1798 ft 145 kts 180°
2026-05-04 18:47 30.47164 -87.31014 1802 ft 148 kts 180°
2026-05-04 18:48 30.46135 -87.31050 1799 ft 148 kts 180°
2026-05-04 18:48 30.45099 -87.31076 1796 ft 150 kts 180°
2026-05-04 18:48 30.44056 -87.31089 1780 ft 150 kts 180°
2026-05-04 18:48 30.43019 -87.31123 1669 ft 149 kts 181°
2026-05-04 18:49 30.42021 -87.31195 1480 ft 141 kts 184°
2026-05-04 18:49 30.41061 -87.31311 1280 ft 136 kts 185°
2026-05-04 18:49 30.40116 -87.31405 1068 ft 136 kts 186°
2026-05-04 18:49 30.39195 -87.31537 904 ft 132 kts 187°
2026-05-04 18:50 30.38278 -87.31666 657 ft 133 kts 185°
2026-05-04 18:50 30.37352 -87.31767 404 ft 132 kts 184°
2026-05-04 18:50 30.36469 -87.31871 152 ft 117 kts 186°
2026-05-04 18:50 30.35784 -87.31960 34 ft 78 kts 185°
2026-05-04 18:51 30.35342 -87.32011 34 ft 53 kts 186°
2026-05-04 18:51 30.35080 -87.32049 34 ft 19 kts 189°
2026-05-04 18:51 30.34983 -87.32002 34 ft 13 kts 130°
2026-05-04 18:51 30.34968 -87.31978 34 ft 0 kts 123°
2026-05-04 18:52 30.34962 -87.31967 34 ft 6 kts 123°
2026-05-04 18:52 30.34945 -87.31937 34 ft 7 kts 123°
2026-05-04 18:52 30.34924 -87.31872 34 ft 11 kts 98°
2026-05-04 18:52 30.34898 -87.31820 34 ft 6 kts 159°
2026-05-04 18:53 30.34827 -87.31826 34 ft 15 kts 184°
2026-05-04 18:53 30.34747 -87.31838 34 ft 13 kts 188°
2026-05-04 18:53 30.34634 -87.31854 34 ft 15 kts 188°
2026-05-04 18:53 30.34540 -87.31870 34 ft 9 kts 180°
2026-05-04 18:54 30.34485 -87.31816 34 ft 13 kts 121°
2026-05-04 18:54 30.34471 -87.31720 34 ft 7 kts 85°
2026-05-04 18:54 30.34537 -87.31685 34 ft 11 kts
2026-05-04 18:54 30.34586 -87.31677 34 ft 1 kts 358°
2026-05-04 18:55 30.34589 -87.31681 34 ft 1 kts 328°
2026-05-04 18:55 30.34590 -87.31691 34 ft 0 kts 279°